Mobile, AL

9:22 PM CST on February 07, 2016 (GMT -0600)
Mobile Downtown

Weather History for KBFM - January, 2007

Change the Weather History Date:

Sunday, January 21, 2007

  Actual Average Record
Temperature  
Mean Temperature 60 °F -  
Max Temperature 66 °F 58 °F 77 °F (2012)
Min Temperature 55 °F 39 °F 21 °F (2009)
Degree Days  
Heating Degree Days 4    
Growing Degree Days 10 (Base 50)    
Moisture  
Dew Point 57 °F    
Average Humidity 83    
Maximum Humidity 94    
Minimum Humidity 55    
Precipitation  
Precipitation 0.18 in - - ()
Sea Level Pressure  
Sea Level Pressure 30.01 in    
Wind  
Wind Speed 9 mph (ESE)    
Max Wind Speed 16 mph    
Max Gust Speed 21 mph    
Visibility 9 miles    
Events Rain    
Averages and records for this station are not official NWS values.
T = Trace of Precipitation, MM = Missing Value Source: NWS Daily Summary

Daily Weather History Graph

Daily Weather History Graph

Search for Another Location

Airport or City:

Trip Planner

Search our weather history database for the weather conditions in past years. The results will help you decide how hot, cold, wet, or windy it might be!

Date:

Astronomy

Jan. 21, 2007 Rise Set
Actual Time 6:48 AM CST 5:18 PM CST
Civil Twilight 6:23 AM CST 5:44 PM CST
Nautical Twilight 5:53 AM CST 6:13 PM CST
Astronomical Twilight 5:24 AM CST 6:42 PM CST
Moon 8:42 AM CST (1/21) 8:17 PM CST (1/21)
Length of Visible Light 11h 21m
Length of Day
10h 29m
Waxing Crescent, 9% of the Moon is Illuminated
Jan 21
Waxing Crescent
Jan 25
First Quarter
Feb 1
Full
Feb 10
Last Quarter
Feb 17
New

Hourly Weather History & Observations

Time (CST) Temp. Dew Point Humidity Pressure Visibility Wind Dir Wind Speed Gust Speed Precip Events Conditions
12:53 AM 55.9 °F 39.9 °F 55% 30.13 in 10.0 mi SE 11.5 mph - N/A   Mostly Cloudy
1:53 AM 55.0 °F 41.0 °F 59% 30.10 in 10.0 mi SE 11.5 mph - N/A   Partly Cloudy
2:53 AM 55.0 °F 44.1 °F 67% 30.08 in 10.0 mi SE 8.1 mph - N/A   Clear
3:53 AM 55.0 °F 46.9 °F 74% 30.06 in 10.0 mi SSE 3.5 mph - N/A   Scattered Clouds
4:13 AM 55.4 °F 48.2 °F 77% 30.06 in 10.0 mi SSE 4.6 mph - N/A   Overcast
4:53 AM 57.0 °F 48.9 °F 74% 30.04 in 10.0 mi SSE 5.8 mph - N/A   Overcast
5:35 AM 59.0 °F 50.0 °F 72% 30.04 in 10.0 mi SSE 8.1 mph - N/A   Scattered Clouds
5:53 AM 60.1 °F 52.0 °F 75% 30.04 in 10.0 mi SSE 8.1 mph - N/A   Mostly Cloudy
6:53 AM 60.1 °F 53.1 °F 78% 30.03 in 10.0 mi SSE 8.1 mph - N/A   Scattered Clouds
7:53 AM 62.1 °F 54.0 °F 75% 30.05 in 10.0 mi SSE 8.1 mph - N/A   Overcast
8:53 AM 63.0 °F 55.9 °F 78% 30.04 in 10.0 mi SSE 11.5 mph - N/A   Overcast
9:53 AM 64.9 °F 59.0 °F 81% 30.03 in 10.0 mi South 16.1 mph - 0.00 in   Overcast
10:53 AM 64.0 °F 57.9 °F 80% 30.03 in 10.0 mi SSW 10.4 mph 17.3 mph N/A   Overcast
11:13 AM 66.2 °F 60.8 °F 83% 30.02 in 10.0 mi SSW 8.1 mph - N/A   Overcast
11:23 AM 64.4 °F 60.8 °F 88% 30.02 in 10.0 mi SW 9.2 mph 17.3 mph N/A   Overcast
11:53 AM 64.0 °F 60.1 °F 87% 30.00 in 10.0 mi South 16.1 mph 20.7 mph N/A   Overcast
12:43 PM 64.4 °F 60.8 °F 88% 29.98 in 10.0 mi South 10.4 mph - N/A   Overcast
12:53 PM 64.9 °F 61.0 °F 87% 29.97 in 10.0 mi South 8.1 mph - N/A   Overcast
1:53 PM 66.9 °F 62.1 °F 84% 29.96 in 10.0 mi South 10.4 mph - N/A   Overcast
2:53 PM 66.0 °F 61.0 °F 84% 29.95 in 10.0 mi South 9.2 mph - N/A   Overcast
3:53 PM 66.0 °F 62.1 °F 87% 29.96 in 10.0 mi Variable 6.9 mph - 0.00 in Rain Light Rain
4:53 PM 66.0 °F 62.1 °F 87% 29.96 in 10.0 mi Calm Calm - 0.00 in   Mostly Cloudy
5:13 PM 64.4 °F 60.8 °F 88% 29.96 in 10.0 mi NE 6.9 mph - N/A   Overcast
5:53 PM 64.0 °F 60.1 °F 87% 29.98 in 8.0 mi NNE 5.8 mph - N/A   Overcast
6:30 PM 64.4 °F 60.8 °F 88% 29.99 in 7.0 mi NE 4.6 mph - N/A   Overcast
6:53 PM 63.0 °F 60.1 °F 90% 29.99 in 4.0 mi NE 5.8 mph - N/A   Overcast
7:02 PM 62.6 °F 59.0 °F 88% 29.99 in 2.5 mi NE 5.8 mph - 0.00 in Rain Light Rain
7:14 PM 62.6 °F 60.8 °F 94% 29.99 in 5.0 mi NNE 5.8 mph - 0.00 in   Overcast
7:22 PM 62.6 °F 60.8 °F 94% 29.99 in 7.0 mi NNE 6.9 mph - 0.00 in Rain Light Rain
7:53 PM 64.0 °F 61.0 °F 90% 29.99 in 10.0 mi North 6.9 mph - 0.01 in Rain Light Rain
8:25 PM 64.4 °F 60.8 °F 88% 30.00 in 9.0 mi North 6.9 mph - 0.02 in Rain Light Rain
8:53 PM 63.0 °F 60.1 °F 90% 30.00 in 10.0 mi North 9.2 mph - 0.03 in Rain Light Rain
9:53 PM 62.1 °F 59.0 °F 90% 30.01 in 10.0 mi NNE 6.9 mph - 0.08 in Rain Light Rain
10:03 PM 62.6 °F 59.0 °F 88% 30.02 in 8.0 mi North 12.7 mph - 0.01 in Rain Light Rain
10:53 PM 61.0 °F 59.0 °F 93% 30.01 in 9.0 mi NNE 4.6 mph - 0.05 in Rain Light Rain
11:00 PM 60.8 °F 57.2 °F 88% 30.01 in 8.0 mi NNE 6.9 mph - 0.00 in Rain Light Rain
11:53 PM 61.0 °F 57.9 °F 90% 30.01 in 10.0 mi North 6.9 mph - 0.01 in   Overcast